Regional Weather Roundup
Issued by NWS

Home | Current Version | Previous Version | Graphics & Text | Print | Product List | Glossary On
Versions: 1 2 3 4 5 6 7 8 9 10 11 12 13 14 15 16 17 18 19 20 21 22 23 24 25 26 27 28 29 30 31 32 33 34 35 36 37 38 39 40 41 42 43 44 45 46 47 48 49 50
000
ASUS43 KIND 251809
RWRIN

WEATHER ROUNDUP FOR INDIANA
NATIONAL WEATHER SERVICE INDIANAPOLIS IN
200 PM EDT MON JUL 25 2016

NOTE: "FAIR" INDICATES FEW OR NO CLOUDS BELOW 12,000 FEET WITH NO
SIGNIFICANT WEATHER AND/OR OBSTRUCTIONS TO VISIBILITY.

* - STATION DOES NOT REPORT WEATHER SUCH AS PRECIPITATION OR FOG.

+ - STATION NOT QUALITY CONTROLLED BY THE NATIONAL WEATHER SERVICE.
    USE DATA WITH CAUTION...ESPECIALLY DEWPOINT AND RELATIVE
    HUMIDITY OBSERVATIONS.

INZ001>003-010>013-019-020-251900-
NORTHWEST INDIANA

CITY           SKY/WX    TMP DP  RH WIND       PRES   REMARKS
GARY /AIRPORT/ PTSUNNY   82 N/A N/A N9        30.03R
KNOX *+        CLOUDY    81  55  41 CALM      30.01S
LA PORTE +     CLOUDY    83  66  55 NW3       30.03S
6HR MIN TEMP:  73; 6HR MAX TEMP:  83;

MICHIGAN CITY+ CLOUDY    79  64  61 NW3       30.03R
MONTICELLO +   PTSUNNY   82  70  68 CALM      30.02S
6HR MIN TEMP:  70; 6HR MAX TEMP:  82;

RENSSELAER +   CLOUDY    81  73  78 CALM      30.03S
VALPARAISO     PTSUNNY   83  63  50 N5        30.03S
6HR MIN TEMP:  73; 6HR MAX TEMP:  84;


$$

LMZ046-743>745-251900-
SOUTHERN LAKE MICHIGAN

STATION/POSITION TIME  TEMP    WIND        PRES    WAVE
                       AIR SEA DIR/SP/G            HT
                 (UTC) (F)     (DEG/KT/KT) (MB)    (FT)
BURNS HARBOR     1700   74      20/  4/  6 1016.9R
MICHIGAN CITY    1700   76     350/  6/  7   N/A
5NW MICH CITY    1800   75 75  310/  2/  4   N/A     1

$$

INZ004-005-014>016-021>024-251900-
NORTH CENTRAL INDIANA

CITY           SKY/WX    TMP DP  RH WIND       PRES   REMARKS
ELKHART        CLOUDY    82  68  61 NW9       30.01R
GOSHEN         CLOUDY    84  66  54 W9        30.00S
6HR MIN TEMP:  71; 6HR MAX TEMP:  85;

LOGANSPORT +   MOSUNNY   81  70  69 NW3       30.03S
PERU/GRISSOM   PTSUNNY   83  72  70 NW7       30.02R
6HR MIN TEMP:  70; 6HR MAX TEMP:  84;

ROCHESTER +    MOSUNNY   82  72  69 NW5       30.02F
SOUTH BEND     PTSUNNY   83  67  58 W8        30.02R
6HR MIN TEMP:  71; 6HR MAX TEMP:  83;

WARSAW +       MOSUNNY   81  70  69 W8        30.02R

$$

INZ006>009-017-018-025>027-251900-
NORTHEAST INDIANA

CITY           SKY/WX    TMP DP  RH WIND       PRES   REMARKS
ANGOLA *+        N/A     84  81  89 W6        29.99S HX  98
AUBURN +       PTSUNNY   82  68  61 W6        30.01S
FORT WAYNE     PTSUNNY   85  71  63 W10       30.01F
6HR MIN TEMP:  72; 6HR MAX TEMP:  85;

HUNTINGTON +   MOSUNNY  N/A N/A N/A NW7       30.02S

$$

INZ028-029-035-036-043>045-051>053-251900-
WEST CENTRAL INDIANA

CITY           SKY/WX    TMP DP  RH WIND       PRES   REMARKS
CRAWFORDSVL +  PTSUNNY   82  73  74 SW3       30.04S
6HR MIN TEMP:  69; 6HR MAX TEMP:  82;

GREENCASTLE +  CLOUDY    82  73  74 N3        30.04F
LAFAYETTE      PTSUNNY   84  74  71 W9        30.02R
6HR MIN TEMP:  70; 6HR MAX TEMP:  84;

TERRE HAUTE    MOSUNNY   87  70  56 W5        30.03F
6HR MIN TEMP:  72; 6HR MAX TEMP:  87;


$$

INZ030>032-037>040-046>048-054>057-064-065-251900-
CENTRAL INDIANA

CITY           SKY/WX    TMP DP  RH WIND       PRES   REMARKS
COLUMBUS       SUNNY     86  75  70 W5        30.02F HX  95
INDIANAPOLIS   PTSUNNY   86  67  52 W9        30.03F
6HR MIN TEMP:  74; 6HR MAX TEMP:  87;

-EAGLE CREEK   CLOUDY    84  69  60 W6        30.03F
6HR MIN TEMP:  75; 6HR MAX TEMP:  86;

KOKOMO *+      CLOUDY    84  72  65 NW8       30.02S
6HR MIN TEMP:  72; 6HR MAX TEMP:  86;

MARION +       CLOUDY    83  72  67 W5        30.02F
MT COMFORT *+  CLOUDY    84  68  58 W7        30.04S
SHELBYVILLE    MOSUNNY   89  68  49 NW8       30.02F
6HR MIN TEMP:  75; 6HR MAX TEMP:  89;

ZIONSVILLE +   CLOUDY    81  71  73 W7        30.05S
6HR MIN TEMP:  71; 6HR MAX TEMP:  81;


$$

INZ033-034-041-042-049-050-058-059-251900-
EAST CENTRAL INDIANA

CITY           SKY/WX    TMP DP  RH WIND       PRES   REMARKS
MUNCIE         CLOUDY    85  71  63 W10       30.02F
6HR MIN TEMP:  74; 6HR MAX TEMP:  85;


$$

INZ060-061-067>069-081>083-085>088-251900-
SOUTHWEST INDIANA

CITY           SKY/WX    TMP DP  RH WIND       PRES   REMARKS
EVANSVILLE     CLOUDY    85  76  74 W5        30.00F
6HR MIN TEMP:  76; 6HR MAX TEMP:  91; 6HR PCP:  0.38;

HUNTINGBURG *+ CLOUDY    88  75  66 S17       30.02R THUNDER HX  97
6HR MIN TEMP:  75; 6HR MAX TEMP:  88;

WASHINGTON +   MOSUNNY   87  76  70 MISG      30.00F HX  98
6HR MIN TEMP:  72; 6HR MAX TEMP:  88;


$$

INZ062-063-066-070>080-084-089>092-251900-
SOUTH CENTRAL AND SOUTHEAST INDIANA

CITY           SKY/WX    TMP DP  RH WIND       PRES   REMARKS
BLOOMINGTON    MOSUNNY   88  70  55 N5        30.03F
6HR MIN TEMP:  73; 6HR MAX TEMP:  89;

MADISON *+     MOSUNNY   90  72  55 W7        30.03F HX  96

$$





USA.gov is the U.S. government's official web portal to all federal, state and local government web resources and services.